Location: Makanda
(37.6176°N, 89.2090°W)
Time: 05:41:30
(UTC+00:00)

DELTA 2 R/B (1) - Pass Details

Date: 23 September 2019
Orbit: 791 x 802 km, 39.6° (Epoch: 15 October)

Event Time Altitude Azimuth Distance (km) Brightness Sun altitude
Rises 01:48:04 0° 271° (W) 3,302 8.0 -23.0°
Reaches altitude 10° 01:50:34 10° 273° (W) 2,372 7.0 -23.5°
Maximum altitude 01:56:10 72° 358° (N) 840 3.6 -24.5°
Enters shadow 01:57:14 57° 58° (ENE) 940 3.7 -24.7°
